Year,Month,Day,Hour,Minute,Value (Times are PST for temperature in C)
2018,04,26,00,00,11.40
2018,04,26,00,01,11.40
2018,04,26,00,02,11.40
2018,04,26,00,03,11.40
2018,04,26,00,04,11.30
2018,04,26,00,05,11.30
2018,04,26,00,06,11.30
2018,04,26,00,07,11.30
2018,04,26,00,08,11.30
2018,04,26,00,09,11.20
2018,04,26,00,10,11.20
2018,04,26,00,11,11.20
2018,04,26,00,12,11.20
2018,04,26,00,13,11.20
2018,04,26,00,14,11.20
2018,04,26,00,15,11.20
2018,04,26,00,16,11.20
2018,04,26,00,17,11.10
2018,04,26,00,18,11.10
2018,04,26,00,19,11.10
2018,04,26,00,20,11.10
2018,04,26,00,21,11.10
2018,04,26,00,22,11.10
2018,04,26,00,23,11.10
2018,04,26,00,24,11.10
2018,04,26,00,25,11.10
2018,04,26,00,26,11.10
2018,04,26,00,27,11.10
2018,04,26,00,28,11.10
2018,04,26,00,29,11.00
2018,04,26,00,30,11.00
2018,04,26,00,31,11.00
2018,04,26,00,32,11.00
2018,04,26,00,33,11.00
2018,04,26,00,34,10.90
2018,04,26,00,35,11.00
2018,04,26,00,36,11.00
2018,04,26,00,37,10.90
2018,04,26,00,38,10.90
2018,04,26,00,39,10.90
2018,04,26,00,40,10.90
2018,04,26,00,41,10.80
2018,04,26,00,42,10.80
2018,04,26,00,43,10.80
2018,04,26,00,44,10.80
2018,04,26,00,45,10.70
2018,04,26,00,46,10.70
2018,04,26,00,47,10.60
2018,04,26,00,48,10.60
2018,04,26,00,49,10.60
2018,04,26,00,50,10.60
2018,04,26,00,51,10.50
2018,04,26,00,52,10.50
2018,04,26,00,53,10.40
2018,04,26,00,54,10.40
2018,04,26,00,55,10.40
2018,04,26,00,56,10.30
2018,04,26,00,57,10.30
2018,04,26,00,58,10.30
2018,04,26,00,59,10.30
2018,04,26,01,00,10.30
2018,04,26,01,01,10.30
2018,04,26,01,02,10.20
2018,04,26,01,03,10.20
2018,04,26,01,04,10.20
2018,04,26,01,05,10.20
2018,04,26,01,06,10.20
2018,04,26,01,07,10.20
2018,04,26,01,08,10.20
2018,04,26,01,09,10.20
2018,04,26,01,10,10.20
2018,04,26,01,11,10.20
2018,04,26,01,12,10.20
2018,04,26,01,13,10.10
2018,04,26,01,14,10.10
2018,04,26,01,15,10.10
2018,04,26,01,16,10.10
2018,04,26,01,17,10.20
2018,04,26,01,18,10.20
2018,04,26,01,19,10.20
2018,04,26,01,20,10.20
2018,04,26,01,21,10.20
2018,04,26,01,22,10.30
2018,04,26,01,23,10.30
2018,04,26,01,24,10.30
2018,04,26,01,25,10.40
2018,04,26,01,26,10.40
2018,04,26,01,27,10.40
2018,04,26,01,28,10.50
2018,04,26,01,29,10.60
2018,04,26,01,30,10.60
2018,04,26,01,31,10.70
2018,04,26,01,32,10.70
2018,04,26,01,33,10.70
2018,04,26,01,34,10.80
2018,04,26,01,35,10.80
2018,04,26,01,36,10.90
2018,04,26,01,37,10.90
2018,04,26,01,38,10.80
2018,04,26,01,39,10.70
2018,04,26,01,40,10.70
2018,04,26,01,41,10.60
2018,04,26,01,42,10.50
2018,04,26,01,43,10.40
2018,04,26,01,44,10.30
2018,04,26,01,45,10.20
2018,04,26,01,46,10.20
2018,04,26,01,47,10.10
2018,04,26,01,48,10.10
2018,04,26,01,49,10.10
2018,04,26,01,50,10.00
2018,04,26,01,51,10.00
2018,04,26,01,52,9.90
2018,04,26,01,53,9.90
2018,04,26,01,54,9.80
2018,04,26,01,55,9.80
2018,04,26,01,56,9.80
2018,04,26,01,57,9.70
2018,04,26,01,58,9.70
2018,04,26,01,59,9.60
2018,04,26,02,00,9.60
2018,04,26,02,01,9.60
2018,04,26,02,02,9.60
2018,04,26,02,03,9.60
2018,04,26,02,04,9.60
2018,04,26,02,05,9.60
2018,04,26,02,06,9.50
2018,04,26,02,07,9.50
2018,04,26,02,08,9.50
2018,04,26,02,09,9.50
2018,04,26,02,10,9.50
2018,04,26,02,11,9.40
2018,04,26,02,12,9.40
2018,04,26,02,13,9.40
2018,04,26,02,14,9.40
2018,04,26,02,15,9.40
2018,04,26,02,16,9.40
2018,04,26,02,17,9.40
2018,04,26,02,18,9.40
2018,04,26,02,19,9.40
2018,04,26,02,20,9.40
2018,04,26,02,21,9.40
2018,04,26,02,22,9.40
2018,04,26,02,23,9.40
2018,04,26,02,24,9.50
2018,04,26,02,25,9.50
2018,04,26,02,26,9.50
2018,04,26,02,27,9.50
2018,04,26,02,28,9.50
2018,04,26,02,29,9.50
2018,04,26,02,30,9.40
2018,04,26,02,31,9.40
2018,04,26,02,32,9.40
2018,04,26,02,33,9.40
2018,04,26,02,34,9.40
2018,04,26,02,35,9.30
2018,04,26,02,36,9.30
2018,04,26,02,37,9.30
2018,04,26,02,38,9.30
2018,04,26,02,39,9.20
2018,04,26,02,40,9.20
2018,04,26,02,41,9.20
2018,04,26,02,42,9.10
2018,04,26,02,43,9.10
2018,04,26,02,44,9.10
2018,04,26,02,45,9.10
2018,04,26,02,46,9.00
2018,04,26,02,47,9.00
2018,04,26,02,48,8.90
2018,04,26,02,49,8.90
2018,04,26,02,50,8.90
2018,04,26,02,51,8.90
2018,04,26,02,52,8.80
2018,04,26,02,53,8.80
2018,04,26,02,54,8.80
2018,04,26,02,55,8.80
2018,04,26,02,56,8.80
2018,04,26,02,57,8.80
2018,04,26,02,58,8.80
2018,04,26,02,59,8.70
2018,04,26,03,00,8.70
2018,04,26,03,01,8.70
2018,04,26,03,02,8.70
2018,04,26,03,03,8.70
2018,04,26,03,04,8.60
2018,04,26,03,05,8.60
2018,04,26,03,06,8.60
2018,04,26,03,07,8.60
2018,04,26,03,08,8.60
2018,04,26,03,09,8.60
2018,04,26,03,10,8.60
2018,04,26,03,11,8.50
2018,04,26,03,12,8.50
2018,04,26,03,13,8.50
2018,04,26,03,14,8.50
2018,04,26,03,15,8.50
2018,04,26,03,16,8.50
2018,04,26,03,17,8.40
2018,04,26,03,18,8.40
2018,04,26,03,19,8.40
2018,04,26,03,20,8.40
2018,04,26,03,21,8.40
2018,04,26,03,22,8.40
2018,04,26,03,23,8.40
2018,04,26,03,24,8.40
2018,04,26,03,25,8.40
2018,04,26,03,26,8.40
2018,04,26,03,27,8.40
2018,04,26,03,28,8.40
2018,04,26,03,29,8.40
2018,04,26,03,30,8.40
2018,04,26,03,31,8.40
2018,04,26,03,32,8.40
2018,04,26,03,33,8.40
2018,04,26,03,34,8.40
2018,04,26,03,35,8.40
2018,04,26,03,36,8.40
2018,04,26,03,37,8.40
2018,04,26,03,38,8.40
2018,04,26,03,39,8.30
2018,04,26,03,40,8.30
2018,04,26,03,41,8.30
2018,04,26,03,42,8.30
2018,04,26,03,43,8.30
2018,04,26,03,44,8.30
2018,04,26,03,45,8.30
2018,04,26,03,46,8.30
2018,04,26,03,47,8.20
2018,04,26,03,48,8.30
2018,04,26,03,49,8.30
2018,04,26,03,50,8.30
2018,04,26,03,51,8.30
2018,04,26,03,52,8.30
2018,04,26,03,53,8.30
2018,04,26,03,54,8.30
2018,04,26,03,55,8.30
2018,04,26,03,56,8.30
2018,04,26,03,57,8.30
2018,04,26,03,58,8.30
2018,04,26,03,59,8.30
2018,04,26,04,00,8.30
2018,04,26,04,01,8.30
2018,04,26,04,02,8.40
2018,04,26,04,03,8.40
2018,04,26,04,04,8.40
2018,04,26,04,05,8.50
2018,04,26,04,06,8.50
2018,04,26,04,07,8.60
2018,04,26,04,08,8.60
2018,04,26,04,09,8.70
2018,04,26,04,10,8.70
2018,04,26,04,11,8.70
2018,04,26,04,12,8.80
2018,04,26,04,13,8.80
2018,04,26,04,14,8.80
2018,04,26,04,15,8.80
2018,04,26,04,16,8.80
2018,04,26,04,17,8.80
2018,04,26,04,18,8.80
2018,04,26,04,19,8.80
2018,04,26,04,20,8.80
2018,04,26,04,21,8.80
2018,04,26,04,22,8.80
2018,04,26,04,23,8.80
2018,04,26,04,24,8.80
2018,04,26,04,25,8.80
2018,04,26,04,26,8.80
2018,04,26,04,27,8.70
2018,04,26,04,28,8.70
2018,04,26,04,29,8.60
2018,04,26,04,30,8.50
2018,04,26,04,31,8.50
2018,04,26,04,32,8.40
2018,04,26,04,33,8.40
2018,04,26,04,34,8.30
2018,04,26,04,35,8.30
2018,04,26,04,36,8.40
2018,04,26,04,37,8.40
2018,04,26,04,38,8.40
2018,04,26,04,39,8.50
2018,04,26,04,40,8.50
2018,04,26,04,41,8.50
2018,04,26,04,42,8.60
2018,04,26,04,43,8.60
2018,04,26,04,44,8.60
2018,04,26,04,45,8.70
2018,04,26,04,46,8.80
2018,04,26,04,47,8.90
2018,04,26,04,48,9.10
2018,04,26,04,49,9.20
2018,04,26,04,50,9.30
2018,04,26,04,51,9.40
2018,04,26,04,52,9.50
2018,04,26,04,53,9.60
2018,04,26,04,54,9.60
2018,04,26,04,55,9.60
2018,04,26,04,56,9.70
2018,04,26,04,57,9.70
2018,04,26,04,58,9.70
2018,04,26,04,59,9.80
2018,04,26,05,00,9.80
2018,04,26,05,01,9.80
2018,04,26,05,02,9.80
2018,04,26,05,03,9.80
2018,04,26,05,04,9.90
2018,04,26,05,05,9.90
2018,04,26,05,06,9.80
2018,04,26,05,07,9.80
2018,04,26,05,08,9.80
2018,04,26,05,09,9.70
2018,04,26,05,10,9.70
2018,04,26,05,11,9.70
2018,04,26,05,12,9.70
2018,04,26,05,13,9.80
2018,04,26,05,14,9.90
2018,04,26,05,15,10.10
2018,04,26,05,16,10.30
2018,04,26,05,17,10.60
2018,04,26,05,18,10.70
2018,04,26,05,19,10.90
2018,04,26,05,20,11.00
2018,04,26,05,21,11.00
2018,04,26,05,22,11.10
2018,04,26,05,23,11.10
2018,04,26,05,24,11.10
2018,04,26,05,25,11.10
2018,04,26,05,26,11.10
2018,04,26,05,27,11.10
2018,04,26,05,28,11.20
2018,04,26,05,29,11.20
2018,04,26,05,30,11.20
2018,04,26,05,31,11.30
2018,04,26,05,32,11.30
2018,04,26,05,33,11.30
2018,04,26,05,34,11.40
2018,04,26,05,35,11.50
2018,04,26,05,36,11.60
2018,04,26,05,37,11.70
2018,04,26,05,38,11.80
2018,04,26,05,39,11.90
2018,04,26,05,40,12.00
2018,04,26,05,41,12.10
2018,04,26,05,42,12.20
2018,04,26,05,43,12.30
2018,04,26,05,44,12.30
2018,04,26,05,45,12.30
2018,04,26,05,46,12.50
2018,04,26,05,47,12.50
2018,04,26,05,48,12.60
2018,04,26,05,49,12.60
2018,04,26,05,50,12.60
2018,04,26,05,51,12.70
2018,04,26,05,52,12.70
2018,04,26,05,53,12.70
2018,04,26,05,54,12.70
2018,04,26,05,55,12.70
2018,04,26,05,56,12.70
2018,04,26,05,57,12.70
2018,04,26,05,58,12.70
2018,04,26,05,59,12.80
2018,04,26,06,00,12.90
2018,04,26,06,01,13.00
2018,04,26,06,02,13.10
2018,04,26,06,03,13.20
2018,04,26,06,04,13.30
2018,04,26,06,05,13.30
2018,04,26,06,06,13.30
2018,04,26,06,07,13.30
2018,04,26,06,08,13.30
2018,04,26,06,09,13.20
2018,04,26,06,10,13.10
2018,04,26,06,11,13.00
2018,04,26,06,12,12.90
2018,04,26,06,13,12.90
2018,04,26,06,14,12.80
2018,04,26,06,15,12.80
2018,04,26,06,16,12.80
2018,04,26,06,17,12.80
2018,04,26,06,18,12.80
2018,04,26,06,19,12.70
2018,04,26,06,20,12.70
2018,04,26,06,21,12.70
2018,04,26,06,22,12.60
2018,04,26,06,23,12.60
2018,04,26,06,24,12.60
2018,04,26,06,25,12.50
2018,04,26,06,26,12.50
2018,04,26,06,27,12.40
2018,04,26,06,28,12.40
2018,04,26,06,29,12.40
2018,04,26,06,30,12.40
2018,04,26,06,31,12.30
2018,04,26,06,32,12.30
2018,04,26,06,33,12.20
2018,04,26,06,34,12.20
2018,04,26,06,35,12.20
2018,04,26,06,36,12.20
2018,04,26,06,37,12.30
2018,04,26,06,38,12.40
2018,04,26,06,39,12.50
2018,04,26,06,40,12.60
2018,04,26,06,41,12.60
2018,04,26,06,42,12.70
2018,04,26,06,43,12.80
2018,04,26,06,44,12.90
2018,04,26,06,45,13.00
2018,04,26,06,46,13.00
2018,04,26,06,47,13.10
2018,04,26,06,48,13.10
2018,04,26,06,49,13.10
2018,04,26,06,50,13.10
2018,04,26,06,51,13.10
2018,04,26,06,52,13.10
2018,04,26,06,53,13.10
2018,04,26,06,54,13.10
2018,04,26,06,55,13.10
2018,04,26,06,56,13.10
2018,04,26,06,57,13.10
2018,04,26,06,58,13.10
2018,04,26,06,59,13.10
2018,04,26,07,00,13.10
2018,04,26,07,01,13.10
2018,04,26,07,02,13.10
2018,04,26,07,03,13.20
2018,04,26,07,04,13.20
2018,04,26,07,05,13.30
2018,04,26,07,06,13.40
2018,04,26,07,07,13.50
2018,04,26,07,08,13.60
2018,04,26,07,09,13.60
2018,04,26,07,10,13.70
2018,04,26,07,11,13.80
2018,04,26,07,12,13.80
2018,04,26,07,13,13.80
2018,04,26,07,14,13.80
2018,04,26,07,15,13.90
2018,04,26,07,16,13.90
2018,04,26,07,17,13.90
2018,04,26,07,18,13.90
2018,04,26,07,19,13.90
2018,04,26,07,20,13.90
2018,04,26,07,21,14.00
2018,04,26,07,22,14.00
2018,04,26,07,23,14.00
2018,04,26,07,24,14.00
2018,04,26,07,25,14.10
2018,04,26,07,26,14.10
2018,04,26,07,27,14.20
2018,04,26,07,28,14.20
2018,04,26,07,29,14.20
2018,04,26,07,30,14.30
2018,04,26,07,31,14.30
2018,04,26,07,32,14.40
2018,04,26,07,33,14.40
2018,04,26,07,34,14.50
2018,04,26,07,35,14.60
2018,04,26,07,36,14.70
2018,04,26,07,37,14.70
2018,04,26,07,38,14.80
2018,04,26,07,39,14.80
2018,04,26,07,40,14.90
2018,04,26,07,41,15.00
2018,04,26,07,42,15.00
2018,04,26,07,43,15.00
2018,04,26,07,44,15.00
2018,04,26,07,45,15.00
2018,04,26,07,46,15.00
2018,04,26,07,47,15.10
2018,04,26,07,48,15.10
2018,04,26,07,49,15.20
2018,04,26,07,50,15.20
2018,04,26,07,51,15.30
2018,04,26,07,52,15.30
2018,04,26,07,53,15.30
2018,04,26,07,54,15.40
2018,04,26,07,55,15.40
2018,04,26,07,56,15.40
2018,04,26,07,57,15.50
2018,04,26,07,58,15.60
2018,04,26,07,59,15.80
2018,04,26,08,00,16.00
2018,04,26,08,01,16.10
2018,04,26,08,02,16.30
2018,04,26,08,03,16.40
2018,04,26,08,04,16.50
2018,04,26,08,05,16.60
2018,04,26,08,06,16.70
2018,04,26,08,07,16.80
2018,04,26,08,08,16.90
2018,04,26,08,09,17.00
2018,04,26,08,10,17.00
2018,04,26,08,11,17.10
2018,04,26,08,12,17.20
2018,04,26,08,13,17.20
2018,04,26,08,14,17.20
2018,04,26,08,15,17.20
2018,04,26,08,16,17.20
2018,04,26,08,17,17.20
2018,04,26,08,18,17.30
2018,04,26,08,19,17.30
2018,04,26,08,20,17.30
2018,04,26,08,21,17.40
2018,04,26,08,22,17.40
2018,04,26,08,23,17.50
2018,04,26,08,24,17.60
2018,04,26,08,25,17.60
2018,04,26,08,26,17.70
2018,04,26,08,27,17.70
2018,04,26,08,28,17.70
2018,04,26,08,29,17.70
2018,04,26,08,30,17.80
2018,04,26,08,31,17.80
2018,04,26,08,32,17.90
2018,04,26,08,33,17.90
2018,04,26,08,34,17.90
2018,04,26,08,35,18.00
2018,04,26,08,36,18.10
2018,04,26,08,37,18.20
2018,04,26,08,38,18.10
2018,04,26,08,39,18.10
2018,04,26,08,40,18.10
2018,04,26,08,41,18.10
2018,04,26,08,42,18.10
2018,04,26,08,43,18.10
2018,04,26,08,44,18.00
2018,04,26,08,45,18.00
2018,04,26,08,46,18.10
2018,04,26,08,47,18.10
2018,04,26,08,48,18.10
2018,04,26,08,49,18.10
2018,04,26,08,50,18.10
2018,04,26,08,51,18.10
2018,04,26,08,52,18.10
2018,04,26,08,53,18.10
2018,04,26,08,54,18.10
2018,04,26,08,55,18.10
2018,04,26,08,56,18.10
2018,04,26,08,57,18.20
2018,04,26,08,58,18.30
2018,04,26,08,59,18.50
2018,04,26,09,00,18.60
2018,04,26,09,01,18.60
2018,04,26,09,02,18.70
2018,04,26,09,03,18.70
2018,04,26,09,04,18.70
2018,04,26,09,05,18.70
2018,04,26,09,06,18.80
2018,04,26,09,07,18.80
2018,04,26,09,08,18.80
2018,04,26,09,09,18.80
2018,04,26,09,10,18.90
2018,04,26,09,11,19.00
2018,04,26,09,12,19.00
2018,04,26,09,13,19.10
2018,04,26,09,14,19.10
2018,04,26,09,15,19.20
2018,04,26,09,16,19.20
2018,04,26,09,17,19.30
2018,04,26,09,18,19.30
2018,04,26,09,19,19.40
2018,04,26,09,20,19.50
2018,04,26,09,21,19.40
2018,04,26,09,22,19.40
2018,04,26,09,23,19.40
2018,04,26,09,24,19.50
2018,04,26,09,25,19.40
2018,04,26,09,26,19.40
2018,04,26,09,27,19.40
2018,04,26,09,28,19.30
2018,04,26,09,29,19.20
2018,04,26,09,30,19.10
2018,04,26,09,31,19.10
2018,04,26,09,32,19.10
2018,04,26,09,33,19.10
2018,04,26,09,34,19.10
2018,04,26,09,35,19.20
2018,04,26,09,36,19.20
2018,04,26,09,37,19.20
2018,04,26,09,38,19.30
2018,04,26,09,39,19.30
2018,04,26,09,40,19.30
2018,04,26,09,41,19.40
2018,04,26,09,42,19.40
2018,04,26,09,43,19.40
2018,04,26,09,44,19.50
2018,04,26,09,45,19.60
2018,04,26,09,46,19.70
2018,04,26,09,47,19.80
2018,04,26,09,48,19.80
2018,04,26,09,49,19.90
2018,04,26,09,50,20.00
2018,04,26,09,51,20.10
2018,04,26,09,52,20.10
2018,04,26,09,53,20.20
2018,04,26,09,54,20.20
2018,04,26,09,55,20.30
2018,04,26,09,56,20.40
2018,04,26,09,57,20.40
2018,04,26,09,58,20.50
2018,04,26,09,59,20.50
2018,04,26,10,00,20.50
2018,04,26,10,01,20.50
2018,04,26,10,02,20.50
2018,04,26,10,03,20.50
2018,04,26,10,04,20.60
2018,04,26,10,05,20.70
2018,04,26,10,06,20.70
2018,04,26,10,07,20.70
2018,04,26,10,08,20.70
2018,04,26,10,09,20.70
2018,04,26,10,10,20.70
2018,04,26,10,11,20.70
2018,04,26,10,12,20.70
2018,04,26,10,13,20.70
2018,04,26,10,14,20.70
2018,04,26,10,15,20.60
2018,04,26,10,16,20.60
2018,04,26,10,17,20.60
2018,04,26,10,18,20.60
2018,04,26,10,19,20.60
2018,04,26,10,20,20.60
2018,04,26,10,21,20.60
2018,04,26,10,22,20.60
2018,04,26,10,23,20.70
2018,04,26,10,24,20.70
2018,04,26,10,25,20.70
2018,04,26,10,26,20.70
2018,04,26,10,27,20.70
2018,04,26,10,28,20.70
2018,04,26,10,29,20.70
2018,04,26,10,30,20.80
2018,04,26,10,31,20.80
2018,04,26,10,32,20.80
2018,04,26,10,33,20.70
2018,04,26,10,34,20.60
2018,04,26,10,35,20.60
2018,04,26,10,36,20.60
2018,04,26,10,37,20.70
2018,04,26,10,38,20.70
2018,04,26,10,39,20.80
2018,04,26,10,40,20.80
2018,04,26,10,41,20.90
2018,04,26,10,42,20.90
2018,04,26,10,43,20.90
2018,04,26,10,44,20.90
2018,04,26,10,45,20.90
2018,04,26,10,46,20.90
2018,04,26,10,47,20.80
2018,04,26,10,48,20.80
2018,04,26,10,49,20.80
2018,04,26,10,50,20.80
2018,04,26,10,51,20.90
2018,04,26,10,52,20.90
2018,04,26,10,53,20.90
2018,04,26,10,54,20.90
2018,04,26,10,55,20.90
2018,04,26,10,56,20.90
2018,04,26,10,57,20.80
2018,04,26,10,58,20.90
2018,04,26,10,59,20.90
2018,04,26,11,00,21.00
2018,04,26,11,01,21.00
2018,04,26,11,02,21.00
2018,04,26,11,03,21.00
2018,04,26,11,04,21.00
2018,04,26,11,05,21.10
2018,04,26,11,06,21.10
2018,04,26,11,07,21.20
2018,04,26,11,08,21.30
2018,04,26,11,09,21.30
2018,04,26,11,10,21.40
2018,04,26,11,11,21.50
2018,04,26,11,12,21.60
2018,04,26,11,13,21.70
2018,04,26,11,14,21.70
2018,04,26,11,15,21.70
2018,04,26,11,16,21.70
2018,04,26,11,17,21.70
2018,04,26,11,18,21.70
2018,04,26,11,19,21.60
2018,04,26,11,20,21.60
2018,04,26,11,21,21.60
2018,04,26,11,22,21.60
2018,04,26,11,23,21.70
2018,04,26,11,24,21.80
2018,04,26,11,25,21.80
2018,04,26,11,26,21.80
2018,04,26,11,27,21.90
2018,04,26,11,28,22.00
2018,04,26,11,29,22.10
2018,04,26,11,30,22.10
2018,04,26,11,31,22.10
2018,04,26,11,32,22.10
2018,04,26,11,33,22.10
2018,04,26,11,34,22.10
2018,04,26,11,35,22.00
2018,04,26,11,36,21.90
2018,04,26,11,37,21.80
2018,04,26,11,38,21.80
2018,04,26,11,39,21.80
2018,04,26,11,40,21.70
2018,04,26,11,41,21.70
2018,04,26,11,42,21.70
2018,04,26,11,43,21.70
2018,04,26,11,44,21.70
2018,04,26,11,45,21.80
2018,04,26,11,46,21.90
2018,04,26,11,47,21.90
2018,04,26,11,48,21.90
2018,04,26,11,49,22.00
2018,04,26,11,50,22.10
2018,04,26,11,51,22.10
2018,04,26,11,52,22.20
2018,04,26,11,53,22.20
2018,04,26,11,54,22.10
2018,04,26,11,55,22.00
2018,04,26,11,56,21.90
2018,04,26,11,57,21.90
2018,04,26,11,58,21.90
2018,04,26,11,59,22.00
2018,04,26,12,00,22.10
2018,04,26,12,01,22.20
2018,04,26,12,02,22.40
2018,04,26,12,03,22.40
2018,04,26,12,04,22.40
2018,04,26,12,05,22.40
2018,04,26,12,06,22.40
2018,04,26,12,07,22.40
2018,04,26,12,08,22.50
2018,04,26,12,09,22.50
2018,04,26,12,10,22.50
2018,04,26,12,11,22.50
2018,04,26,12,12,22.50
2018,04,26,12,13,22.60
2018,04,26,12,14,22.60
2018,04,26,12,15,22.60
2018,04,26,12,16,22.70
2018,04,26,12,17,22.70
2018,04,26,12,18,22.70
2018,04,26,12,19,22.80
2018,04,26,12,20,22.80
2018,04,26,12,21,22.80
2018,04,26,12,22,22.80
2018,04,26,12,23,22.90
2018,04,26,12,24,22.90
2018,04,26,12,25,23.00
2018,04,26,12,26,23.00
2018,04,26,12,27,22.90
2018,04,26,12,28,22.70
2018,04,26,12,29,22.70
2018,04,26,12,30,22.60
2018,04,26,12,31,22.50
2018,04,26,12,32,22.50
2018,04,26,12,33,22.50
2018,04,26,12,34,22.50
2018,04,26,12,35,22.60
2018,04,26,12,36,22.60
2018,04,26,12,37,22.60
2018,04,26,12,38,22.60
2018,04,26,12,39,22.60
2018,04,26,12,40,22.70
2018,04,26,12,41,22.80
2018,04,26,12,42,22.80
2018,04,26,12,43,22.80
2018,04,26,12,44,23.00
2018,04,26,12,45,23.00
2018,04,26,12,46,23.10
2018,04,26,12,47,23.10
2018,04,26,12,48,23.10
2018,04,26,12,49,23.00
2018,04,26,12,50,23.00
2018,04,26,12,51,22.90
2018,04,26,12,52,22.80
2018,04,26,12,53,22.80
2018,04,26,12,54,22.70
2018,04,26,12,55,22.70
2018,04,26,12,56,22.60
2018,04,26,12,57,22.60
2018,04,26,12,58,22.60
2018,04,26,12,59,22.60
2018,04,26,13,00,22.80
2018,04,26,13,01,22.80
2018,04,26,13,02,22.80
2018,04,26,13,03,22.80
2018,04,26,13,04,22.80
2018,04,26,13,05,22.80
2018,04,26,13,06,22.80
2018,04,26,13,07,22.70
2018,04,26,13,08,22.70
2018,04,26,13,09,22.70
2018,04,26,13,10,22.70
2018,04,26,13,11,22.70
2018,04,26,13,12,22.70
2018,04,26,13,13,22.60
2018,04,26,13,14,22.60
2018,04,26,13,15,22.60
2018,04,26,13,16,22.60
2018,04,26,13,17,22.70
2018,04,26,13,18,22.70
2018,04,26,13,19,22.80
2018,04,26,13,20,22.70
2018,04,26,13,21,22.70
2018,04,26,13,22,22.70
2018,04,26,13,23,22.80
2018,04,26,13,24,22.90
2018,04,26,13,25,22.90
2018,04,26,13,26,23.00
2018,04,26,13,27,23.00
2018,04,26,13,28,23.00
2018,04,26,13,29,23.10
2018,04,26,13,30,23.20
2018,04,26,13,31,23.20
2018,04,26,13,32,23.30
2018,04,26,13,33,23.30
2018,04,26,13,34,23.30
2018,04,26,13,35,23.30
2018,04,26,13,36,23.30
2018,04,26,13,37,23.30
2018,04,26,13,38,23.30
2018,04,26,13,39,23.30
2018,04,26,13,40,23.30
2018,04,26,13,41,23.30
2018,04,26,13,42,23.30
2018,04,26,13,43,23.30
2018,04,26,13,44,23.40
2018,04,26,13,45,23.50
2018,04,26,13,46,23.60
2018,04,26,13,47,23.60
2018,04,26,13,48,23.60
2018,04,26,13,49,23.50
2018,04,26,13,50,23.30
2018,04,26,13,51,23.20
2018,04,26,13,52,23.20
2018,04,26,13,53,23.10
2018,04,26,13,54,23.00
2018,04,26,13,55,22.90
2018,04,26,13,56,22.80
2018,04,26,13,57,22.80
2018,04,26,13,58,22.80
2018,04,26,13,59,23.00
2018,04,26,14,00,23.10
2018,04,26,14,01,23.20
2018,04,26,14,02,23.20
2018,04,26,14,03,23.10
2018,04,26,14,04,23.00
2018,04,26,14,05,22.80
2018,04,26,14,06,22.60
2018,04,26,14,07,22.50
2018,04,26,14,08,22.40
2018,04,26,14,09,22.40
2018,04,26,14,10,22.40
2018,04,26,14,11,22.50
2018,04,26,14,12,22.60
2018,04,26,14,13,22.70
2018,04,26,14,14,22.70
2018,04,26,14,15,22.80
2018,04,26,14,16,22.80
2018,04,26,14,17,22.80
2018,04,26,14,18,22.90
2018,04,26,14,19,22.90
2018,04,26,14,20,22.90
2018,04,26,14,21,22.90
2018,04,26,14,22,22.80
2018,04,26,14,23,22.80
2018,04,26,14,24,22.80
2018,04,26,14,25,22.90
2018,04,26,14,26,22.90
2018,04,26,14,27,22.80
2018,04,26,14,28,22.70
2018,04,26,14,29,22.70
2018,04,26,14,30,22.70
2018,04,26,14,31,22.60
2018,04,26,14,32,22.70
2018,04,26,14,33,22.70
2018,04,26,14,34,22.70
2018,04,26,14,35,22.70
2018,04,26,14,36,22.70
2018,04,26,14,37,22.80
2018,04,26,14,38,22.90
2018,04,26,14,39,22.90
2018,04,26,14,40,22.80
2018,04,26,14,41,22.80
2018,04,26,14,42,22.80
2018,04,26,14,43,22.80
2018,04,26,14,44,22.80
2018,04,26,14,45,22.70
2018,04,26,14,46,22.70
2018,04,26,14,47,22.70
2018,04,26,14,48,22.60
2018,04,26,14,49,22.60
2018,04,26,14,50,22.60
2018,04,26,14,51,22.70
2018,04,26,14,52,22.60
2018,04,26,14,53,22.50
2018,04,26,14,54,22.50
2018,04,26,14,55,22.50
2018,04,26,14,56,22.60
2018,04,26,14,57,22.60
2018,04,26,14,58,22.70
2018,04,26,14,59,22.80
2018,04,26,15,00,22.80
2018,04,26,15,01,22.70
2018,04,26,15,02,22.70
2018,04,26,15,03,22.80
2018,04,26,15,04,22.80
2018,04,26,15,05,22.80
2018,04,26,15,06,22.80
2018,04,26,15,07,22.70
2018,04,26,15,08,22.60
2018,04,26,15,09,22.60
2018,04,26,15,10,22.50
2018,04,26,15,11,22.40
2018,04,26,15,12,22.30
2018,04,26,15,13,22.10
2018,04,26,15,14,22.10
2018,04,26,15,15,22.10
2018,04,26,15,16,22.00
2018,04,26,15,17,22.10
2018,04,26,15,18,22.20
2018,04,26,15,19,22.30
2018,04,26,15,20,22.40
2018,04,26,15,21,22.60
2018,04,26,15,22,22.70
2018,04,26,15,23,22.80
2018,04,26,15,24,22.80
2018,04,26,15,25,22.80
2018,04,26,15,26,23.00
2018,04,26,15,27,23.00
2018,04,26,15,28,22.80
2018,04,26,15,29,22.70
2018,04,26,15,30,22.70
2018,04,26,15,31,22.70
2018,04,26,15,32,22.80
2018,04,26,15,33,22.50
2018,04,26,15,34,22.30
2018,04,26,15,35,22.10
2018,04,26,15,36,22.10
2018,04,26,15,37,22.20
2018,04,26,15,38,22.20
2018,04,26,15,39,22.10
2018,04,26,15,40,21.90
2018,04,26,15,41,21.70
2018,04,26,15,42,21.60
2018,04,26,15,43,21.50
2018,04,26,15,44,21.50
2018,04,26,15,45,21.50
2018,04,26,15,46,21.60
2018,04,26,15,47,21.80
2018,04,26,15,48,21.90
2018,04,26,15,49,22.00
2018,04,26,15,50,22.20
2018,04,26,15,51,22.40
2018,04,26,15,52,22.50
2018,04,26,15,53,22.60
2018,04,26,15,54,22.70
2018,04,26,15,55,22.80
2018,04,26,15,56,22.80
2018,04,26,15,57,22.70
2018,04,26,15,58,22.70
2018,04,26,15,59,22.80
2018,04,26,16,00,22.80
2018,04,26,16,01,22.80
2018,04,26,16,02,22.90
2018,04,26,16,03,22.90
2018,04,26,16,04,23.00
2018,04,26,16,05,23.00
2018,04,26,16,06,23.10
2018,04,26,16,07,23.20
2018,04,26,16,08,23.30
2018,04,26,16,09,23.40
2018,04,26,16,10,23.40
2018,04,26,16,11,23.40
2018,04,26,16,12,23.40
2018,04,26,16,13,23.30
2018,04,26,16,14,23.20
2018,04,26,16,15,23.20
2018,04,26,16,16,23.10
2018,04,26,16,17,23.10
2018,04,26,16,18,23.10
2018,04,26,16,19,23.20
2018,04,26,16,20,23.30
2018,04,26,16,21,23.40
2018,04,26,16,22,23.40
2018,04,26,16,23,23.50
2018,04,26,16,24,23.50
2018,04,26,16,25,23.50
2018,04,26,16,26,23.50
2018,04,26,16,27,23.40
2018,04,26,16,28,23.40
2018,04,26,16,29,23.40
2018,04,26,16,30,23.40
2018,04,26,16,31,23.30
2018,04,26,16,32,23.30
2018,04,26,16,33,23.20
2018,04,26,16,34,23.20
2018,04,26,16,35,23.10
2018,04,26,16,36,23.10
2018,04,26,16,37,23.10
2018,04,26,16,38,23.20
2018,04,26,16,39,23.20
2018,04,26,16,40,23.30
2018,04,26,16,41,23.40
2018,04,26,16,42,23.40
2018,04,26,16,43,23.40
2018,04,26,16,44,23.40
2018,04,26,16,45,23.40
2018,04,26,16,46,23.30
2018,04,26,16,47,23.10
2018,04,26,16,48,22.90
2018,04,26,16,49,22.70
2018,04,26,16,50,22.50
2018,04,26,16,51,22.40
2018,04,26,16,52,22.30
2018,04,26,16,53,22.40
2018,04,26,16,54,22.40
2018,04,26,16,55,22.50
2018,04,26,16,56,22.50
2018,04,26,16,57,22.50
2018,04,26,16,58,22.60
2018,04,26,16,59,22.60
2018,04,26,17,00,22.60
2018,04,26,17,01,22.60
2018,04,26,17,02,22.60
2018,04,26,17,03,22.60
2018,04,26,17,04,22.70
2018,04,26,17,05,22.70
2018,04,26,17,06,22.80
2018,04,26,17,07,22.80
2018,04,26,17,08,22.90
2018,04,26,17,09,22.80
2018,04,26,17,10,22.90
2018,04,26,17,11,22.90
2018,04,26,17,12,22.90
2018,04,26,17,13,23.00
2018,04,26,17,14,23.10
2018,04,26,17,15,23.20
2018,04,26,17,16,23.20
2018,04,26,17,17,23.10
2018,04,26,17,18,22.90
2018,04,26,17,19,22.70
2018,04,26,17,20,22.50
2018,04,26,17,21,22.40
2018,04,26,17,22,22.30
2018,04,26,17,23,22.30
2018,04,26,17,24,22.40
2018,04,26,17,25,22.40
2018,04,26,17,26,22.40
2018,04,26,17,27,22.40
2018,04,26,17,28,22.40